Weather History for Imperial, CA

Change the Weather History Date:

Saturday, September 14, 2013

  Actual Average Record
Temperature  
Mean Temperature 91 °F -  
Max Temperature 108 °F 100 °F 112 °F (1984)
Min Temperature 75 °F 72 °F 60 °F (1952)
Cooling Degree Days 26    
Growing Degree Days 41 (Base 50)    
Moisture  
Dew Point 49 °F    
Average Humidity 25    
Maximum Humidity 40    
Minimum Humidity 12    
Precipitation  
Precipitation 0.00 in - - ()
Sea Level Pressure  
Sea Level Pressure 29.57 in    
Wind  
Wind Speed 4 mph (WSW)    
Max Wind Speed 7 mph    
Max Gust Speed -    
Visibility 10 miles    
Events      
Averages and records for this station are not official NWS values.
T = Trace of Precipitation, MM = Missing Value Source: NWS Daily Summary

Daily Weather History Graph

Daily Weather History Graph

Search for Another Location

Airport:

Trip Planner

Search our weather history database for the weather conditions in past years. The results will help you decide how hot, cold, wet, or windy it might be!

Date:

Astronomy

Sep. 14, 2013 Rise Set
Actual Time 6:25 AM PDT 6:49 PM PDT
Civil Twilight 6:00 AM PDT 7:14 PM PDT
Nautical Twilight 5:31 AM PDT 7:43 PM PDT
Astronomical Twilight 5:02 AM PDT 8:12 PM PDT
Moon 3:22 PM PDT (9/14) 1:14 AM PDT (9/14)
Length of Visible Light 13h 13m
Length of Day
12h 23m
Waxing Gibbous, 73% of the Moon is Illuminated
Sep 14
Waxing Gibbous
Sep 19
Full
Sep 26
Last Quarter
Oct 4
New
Oct 11
First Quarter

Hourly Weather History & Observations

Time (PDT) Temp. Heat Index Dew Point Humidity Pressure Visibility Wind Dir Wind Speed Gust Speed Precip Events Conditions
12:53 AM 82.0 °F - 48.9 °F 31% 29.58 in 10.0 mi West 5.8 mph - N/A   Clear
1:53 AM 80.1 °F - 48.9 °F 34% 29.58 in 10.0 mi WNW 6.9 mph - N/A   Clear
2:53 AM 78.1 °F - 50.0 °F 37% 29.57 in 10.0 mi West 4.6 mph - N/A   Clear
3:53 AM 77.0 °F - 50.0 °F 39% 29.57 in 10.0 mi West 4.6 mph - N/A   Clear
4:53 AM 75.9 °F - 50.0 °F 40% 29.58 in 10.0 mi WSW 4.6 mph - N/A   Clear
5:53 AM 75.9 °F - 50.0 °F 40% 29.58 in 10.0 mi WSW 5.8 mph - N/A   Clear
6:53 AM 75.9 °F - 50.0 °F 40% 29.60 in 10.0 mi West 5.8 mph - N/A   Clear
7:53 AM 81.0 °F - 52.0 °F 36% 29.61 in 10.0 mi West 5.8 mph - N/A   Clear
8:53 AM 89.1 °F - 50.0 °F 26% 29.62 in 10.0 mi Calm Calm - N/A   Clear
9:53 AM 96.1 °F - 48.0 °F 19% 29.62 in 10.0 mi NW 5.8 mph - N/A   Clear
10:53 AM 100.9 °F - 45.0 °F 15% 29.62 in 10.0 mi North 6.9 mph - N/A   Clear
11:53 AM 102.9 °F - 42.1 °F 13% 29.61 in 10.0 mi Calm Calm - N/A   Clear
12:53 PM 105.1 °F - 44.1 °F 13% 29.59 in 10.0 mi SSW 3.5 mph - N/A   Clear
1:53 PM 106.0 °F - 45.0 °F 13% 29.57 in 10.0 mi Calm Calm - N/A   Clear
2:53 PM 106.0 °F - 45.0 °F 13% 29.55 in 10.0 mi Calm Calm - N/A   Clear
3:53 PM 106.0 °F - 46.0 °F 13% 29.53 in 10.0 mi ESE 3.5 mph - N/A   Clear
4:53 PM 107.1 °F - 44.1 °F 12% 29.52 in 10.0 mi Variable 5.8 mph - N/A   Clear
5:53 PM 106.0 °F - 46.0 °F 13% 29.52 in 10.0 mi South 5.8 mph - N/A   Clear
6:53 PM 100.0 °F - 51.1 °F 19% 29.52 in 10.0 mi SW 3.5 mph - N/A   Clear
7:53 PM 95.0 °F 92.5 °F 53.1 °F 24% 29.54 in 10.0 mi SSW 3.5 mph - N/A   Clear
8:53 PM 93.0 °F 90.6 °F 53.1 °F 26% 29.56 in 10.0 mi SSW 3.5 mph - N/A   Clear
9:53 PM 88.0 °F 85.9 °F 54.0 °F 31% 29.57 in 10.0 mi Calm Calm - N/A   Clear
10:53 PM 91.0 °F 88.5 °F 53.1 °F 27% 29.58 in 10.0 mi Calm Calm - N/A   Clear
11:53 PM 86.0 °F 84.7 °F 55.9 °F 36% 29.58 in 10.0 mi Calm Calm - N/A   Clear